Diretta Meteo Torino-Caselle, Italiavenerdì 23 agosto ore 06:50

Mappa
Sereno 16 °C Sereno 24 Ore: T.min 16 T.max 25
Ponente Nord Km/h 3.7 Punto di rugiada: 15 °C Umidità: 93% Visibilità: 10 Km
Il sole sorge alle: 06:39 Il sole tramonta alle: 20:24
23 Agosto 2019 06:50 tempo osservato: Sereno Sereno 16 93 1021 vento: Nord N 3.7
23 Agosto 2019 06:20 tempo osservato: Sereno Sereno 18 82 1021 vento: Nord N 3.7
23 Agosto 2019 05:50 tempo osservato: Sereno Sereno 18 88 1021 vento: Nord N 3.7
23 Agosto 2019 05:20 tempo osservato: Sereno Sereno 18 82 1021 vento: Nord N 5.5
23 Agosto 2019 04:50 tempo osservato: Sereno Sereno 18 88 1021 vento: Nord N 5.5
23 Agosto 2019 04:20 tempo osservato: Sereno Sereno 18 88 1022 vento: Nord N 3.7
23 Agosto 2019 03:50 tempo osservato: Sereno Sereno 18 88 1022 vento: Nord N 5.5
23 Agosto 2019 03:20 tempo osservato: Sereno Sereno 19 82 1022 vento: Nord O 7.4
23 Agosto 2019 02:50 tempo osservato: Sereno Sereno 19 82 1022 vento: Nord O/NO 7.4
23 Agosto 2019 02:20 tempo osservato: Sereno Sereno 19 88 1022 vento: Nord N 5.5
23 Agosto 2019 01:50 tempo osservato: Sereno Sereno 19 88 1022 vento: Nord N 3.7
23 Agosto 2019 01:20 tempo osservato: Sereno Sereno 19 88 1022 vento: Nord N 1.8
23 Agosto 2019 00:50 tempo osservato: Sereno Sereno 20 88 1022 vento: Nord N 3.7
23 Agosto 2019 00:20 tempo osservato: Sereno Sereno 20 82 1022 vento: Nord N 3.7
22 Agosto 2019 23:50 tempo osservato: Sereno Sereno 20 82 1022 vento: Nord N 5.5
22 Agosto 2019 23:20 tempo osservato: Sereno Sereno 21 82 1022 vento: Nord NO 7.4
22 Agosto 2019 22:50 tempo osservato: Sereno Sereno 21 82 1022 vento: Nord N 5.5
22 Agosto 2019 22:20 tempo osservato: Sereno Sereno 21 82 1022 vento: Nord N 1.8
22 Agosto 2019 21:50 tempo osservato: Sereno Sereno 23 73 1022 vento: Nord N 5.5
22 Agosto 2019 21:20 tempo osservato: Sereno Sereno 23 73 1021 vento: Nord N 5.5
22 Agosto 2019 20:50 tempo osservato: Sereno Sereno 23 68 1021 vento: Nord N 3.7
22 Agosto 2019 20:20 tempo osservato: Sereno Sereno 24 64 1021 vento: Nord N 3.7
22 Agosto 2019 19:50 tempo osservato: Sereno Sereno 24 64 1021 vento: Nord N 5.5
22 Agosto 2019 19:20 tempo osservato: Sereno Sereno 24 64 1021 vento: Nord N 5.5
22 Agosto 2019 18:50 tempo osservato: Sereno Sereno 25 61 1021 vento: Nord N 3.7
22 Agosto 2019 18:20 tempo osservato: Sereno Sereno 25 53 1021 vento: Nord N 5.5
22 Agosto 2019 17:50 tempo osservato: Sereno Sereno 25 53 1021 vento: Nord SO 7.4
22 Agosto 2019 17:20 tempo osservato: Sereno Sereno 25 61 1022 vento: Nord N 5.5
22 Agosto 2019 16:50 tempo osservato: Sereno Sereno 25 69 1022 vento: Nord O 7.4
22 Agosto 2019 16:20 tempo osservato: Nuvoloso Nuvoloso 24 69 1022 vento: Nord O/SO 7.4
22 Agosto 2019 15:50 tempo osservato: Nuvoloso Nuvoloso 23 78 1022 vento: Nord O/SO 9.3
22 Agosto 2019 15:20 tempo osservato: Nuvoloso Nuvoloso 24 73 1022 vento: Nord N 5.5
22 Agosto 2019 14:50 tempo osservato: Nuvoloso Nuvoloso 23 78 1022 vento: Nord S/SE 7.4
22 Agosto 2019 14:20 tempo osservato: Nuvoloso Nuvoloso 23 83 1022 vento: Nord N 5.5
22 Agosto 2019 13:50 tempo osservato: Nuvoloso Nuvoloso 22 88 1023 vento: Nord SE 9.3
22 Agosto 2019 13:20 tempo osservato: Nuvoloso Nuvoloso 23 78 1023 vento: Nord N 5.5
22 Agosto 2019 12:50 tempo osservato: Nuvoloso Nuvoloso 22 88 1023 vento: Nord O 7.4
22 Agosto 2019 12:20 tempo osservato: Nuvoloso Nuvoloso 21 94 1024 vento: Nord O/SO 9.3
22 Agosto 2019 11:50 tempo osservato: Molto Nuvoloso Molto Nuvoloso 20 100 1024 vento: Nord SO 13
22 Agosto 2019 11:20 tempo osservato: Temporale nelle Vicinanze Temporale nelle Vicinanze 20 93 1024 vento: Nord O/SO 11.1
22 Agosto 2019 10:50 tempo osservato: Temporale con Pioggia Debole Temporale con Pioggia Debole 20 93 1024 vento: Nord SO 9.3
22 Agosto 2019 10:20 tempo osservato: Rovescio di Pioggia Rovescio di Pioggia 20 93 1024 vento: Nord SO 11.1
22 Agosto 2019 09:50 tempo osservato: Rovescio di Pioggia Rovescio di Pioggia 21 82 1024 vento: Nord N 3.7
22 Agosto 2019 09:20 tempo osservato: Molto Nuvoloso Molto Nuvoloso 22 83 1023 vento: Nord N 3.7
22 Agosto 2019 08:50 tempo osservato: Temporale con Pioggia Debole Temporale con Pioggia Debole 21 88 1023 vento: Nord N 3.7
22 Agosto 2019 08:20 tempo osservato: Debole Rovescio di Pioggia Debole Rovescio di Pioggia 21 88 1023 vento: Nord N/NO 7.4
22 Agosto 2019 07:50 tempo osservato: Debole Rovescio di Pioggia Debole Rovescio di Pioggia 21 82 1022 vento: Nord NO 7.4